When you browse on this site, cookies collect data to enhance your experience and personalize the content and advertising you see.
Visit our Privacy Policy to learn more. By continuing to use the site, you agree to this use of cookies and data.
  • In Latvia
  • List of Countries
  • For 7 days
  • Water Temperature
  • Satellite Maps
  • Weather Map
  • Weather Widgets
  • user-avatar
    Login

    Hourly Weather Wien

    Today, 22 March, Friday

    Time Temperature Precipitation Wind Pressure Humidity
    00:00 +7°C° 0 mm 0 mps 756 mmHg 51%
    01:00 +6°C° 0 mm 0 mps 756 mmHg 50%
    02:00 +6°C° 0 mm 0 mps 755 mmHg 50%
    03:00 +6°C° 0 mm 0 mps 755 mmHg 51%
    04:00 +5°C° 0 mm 0 mps 755 mmHg 52%
    05:00 +6°C° 0 mm 0 mps 755 mmHg 52%
    06:00 +6°C° 0 mm 0 mps 755 mmHg 53%
    07:00 +6°C° 0 mm 0 mps 755 mmHg 54%
    08:00 +8°C° 0 mm 0 mps 755 mmHg 50%
    09:00 +10°C° 0 mm 0 mps 755 mmHg 46%
    10:00 +12°C° 0 mm 0 mps 754 mmHg 42%
    11:00 +14°C° 0 mm 1 mps 754 mmHg 43%
    12:00 +16°C° 0 mm 1 mps 754 mmHg 43%
    13:00 +18°C° 0 mm 1 mps 754 mmHg 43%
    14:00 +18°C° 0 mm 1 mps 753 mmHg 45%
    15:00 +17°C° 0 mm 2 mps 753 mmHg 47%
    16:00 +17°C° 0 mm 2 mps 753 mmHg 48%
    17:00 +16°C° 0 mm 1 mps 753 mmHg 53%
    18:00 +14°C° 0 mm 1 mps 753 mmHg 59%
    19:00 +13°C° 0 mm 1 mps 753 mmHg 64%
    20:00 +12°C° 0 mm 1 mps 753 mmHg 66%
    21:00 +12°C° 0 mm 1 mps 753 mmHg 68%
    22:00 +10°C° 0 mm 0 mps 753 mmHg 71%
    23:00 +10°C° 0 mm 0 mps 753 mmHg 73%

    Tomorrow, 23 March, Saturday

    Time Temperature Precipitation Wind Pressure Humidity
    00:00 +9°C° 0 mm 0 mps 753 mmHg 75%
    01:00 +9°C° 0 mm 0 mps 753 mmHg 77%
    02:00 +8°C° 0 mm 0 mps 753 mmHg 78%
    03:00 +8°C° 0 mm 0 mps 752 mmHg 80%
    04:00 +8°C° 0 mm 0 mps 752 mmHg 81%
    05:00 +8°C° 0 mm 0 mps 752 mmHg 81%
    06:00 +8°C° 0 mm 0 mps 752 mmHg 80%
    07:00 +8°C° 0 mm 0 mps 752 mmHg 79%
    08:00 +10°C° 0 mm 0 mps 752 mmHg 71%
    09:00 +12°C° 0 mm 0 mps 752 mmHg 63%
    10:00 +14°C° 0 mm 0 mps 752 mmHg 56%
    11:00 +16°C° 0 mm 1 mps 751 mmHg 51%
    12:00 +19°C° 0 mm 1 mps 751 mmHg 47%
    13:00 +20°C° 0 mm 1 mps 751 mmHg 43%
    14:00 +20°C° 0 mm 1 mps 750 mmHg 43%
    15:00 +20°C° 0 mm 1 mps 750 mmHg 42%
    16:00 +20°C° 0 mm 1 mps 750 mmHg 42%
    17:00 +19°C° 0 mm 1 mps 750 mmHg 47%
    18:00 +16°C° 0 mm 1 mps 750 mmHg 52%
    19:00 +15°C° 0 mm 1 mps 750 mmHg 57%
    20:00 +14°C° 0 mm 1 mps 750 mmHg 59%
    21:00 +13°C° 0 mm 1 mps 750 mmHg 62%
    22:00 +13°C° 0 mm 1 mps 750 mmHg 64%
    23:00 +12°C° 0 mm 1 mps 750 mmHg 66%

    Day after tomorrow, 24 March, Sunday

    Time Temperature Precipitation Wind Pressure Humidity
    00:00 +12°C° 0 mm 1 mps 750 mmHg 69%
    01:00 +11°C° 0 mm 1 mps 750 mmHg 71%
    02:00 +11°C° 0 mm 1 mps 750 mmHg 73%
    03:00 +11°C° 0 mm 1 mps 749 mmHg 74%
    04:00 +10°C° 0 mm 1 mps 749 mmHg 76%
    05:00 +10°C° 0 mm 1 mps 749 mmHg 76%
    06:00 +10°C° 0 mm 1 mps 749 mmHg 76%
    07:00 +10°C° 0 mm 1 mps 749 mmHg 77%
    08:00 +12°C° 0 mm 2 mps 749 mmHg 71%
    09:00 +14°C° 0 mm 2 mps 749 mmHg 66%
    10:00 +15°C° 0 mm 2 mps 749 mmHg 61%
    11:00 +16°C° 0 mm 2 mps 749 mmHg 58%
    12:00 +17°C° 0 mm 2 mps 748 mmHg 56%
    13:00 +18°C° 0 mm 3 mps 748 mmHg 53%
    14:00 +18°C° 0 mm 3 mps 748 mmHg 56%
    15:00 +17°C° 0 mm 4 mps 747 mmHg 59%
    16:00 +17°C° 0 mm 4 mps 747 mmHg 62%
    17:00 +14°C° 0 mm 4 mps 747 mmHg 66%
    18:00 +13°C° 0 mm 4 mps 748 mmHg 70%
    19:00 +12°C° 0 mm 3 mps 748 mmHg 74%
    20:00 +11°C° 0.1 mm 3 mps 748 mmHg 75%
    21:00 +11°C° 0.1 mm 3 mps 749 mmHg 76%
    22:00 +10°C° 0.1 mm 3 mps 749 mmHg 77%
    23:00 +10°C° 0.2 mm 3 mps 749 mmHg 76%

    25 March, Monday

    Time Temperature Precipitation Wind Pressure Humidity
    00:00 +9°C° 0.2 mm 3 mps 749 mmHg 76%
    01:00 +8°C° 0.2 mm 4 mps 749 mmHg 75%
    02:00 +7°C° 0.1 mm 4 mps 749 mmHg 73%
    03:00 +7°C° 0.1 mm 4 mps 749 mmHg 71%
    04:00 +6°C° 0.1 mm 4 mps 749 mmHg 69%
    05:00 +6°C° 0 mm 4 mps 750 mmHg 68%
    06:00 +5°C° 0 mm 4 mps 750 mmHg 67%
    07:00 +5°C° 0 mm 4 mps 750 mmHg 66%
    08:00 +6°C° 0 mm 4 mps 750 mmHg 61%
    09:00 +7°C° 0 mm 4 mps 750 mmHg 56%
    10:00 +8°C° 0 mm 5 mps 750 mmHg 51%
    11:00 +9°C° 0 mm 5 mps 749 mmHg 48%
    12:00 +9°C° 0 mm 5 mps 749 mmHg 45%
    13:00 +10°C° 0 mm 6 mps 748 mmHg 41%
    14:00 +10°C° 0 mm 6 mps 748 mmHg 41%
    15:00 +10°C° 0 mm 6 mps 747 mmHg 41%
    16:00 +10°C° 0 mm 6 mps 747 mmHg 41%
    17:00 +9°C° 0 mm 6 mps 747 mmHg 45%
    18:00 +8°C° 0 mm 6 mps 747 mmHg 49%
    19:00 +7°C° 0 mm 6 mps 747 mmHg 54%
    20:00 +7°C° 0.4 mm 6 mps 748 mmHg 56%
    21:00 +5°C° 0.4 mm 6 mps 748 mmHg 59%
    22:00 +4°C° 0.4 mm 7 mps 749 mmHg 62%
    23:00 +3°C° 0 mm 6 mps 749 mmHg 63%

    26 March, Tuesday

    Time Temperature Precipitation Wind Pressure Humidity
    00:00 +2°C° 0 mm 6 mps 750 mmHg 65%
    01:00 +2°C° 0 mm 6 mps 750 mmHg 66%
    02:00 +2°C° 0 mm 6 mps 750 mmHg 68%
    03:00 +1°C° 0 mm 6 mps 750 mmHg 69%
    04:00 +1°C° 0 mm 6 mps 751 mmHg 70%
    05:00 +1°C° 0 mm 6 mps 751 mmHg 67%
    06:00 -1°C° 0 mm 7 mps 752 mmHg 65%
    07:00 -2°C° 0 mm 7 mps 753 mmHg 62%
    08:00 -1°C° 0 mm 7 mps 753 mmHg 59%
    09:00 0°C° 0 mm 7 mps 754 mmHg 56%
    10:00 0°C° 0 mm 7 mps 755 mmHg 52%
    11:00 +2°C° 0 mm 7 mps 755 mmHg 51%
    12:00 +3°C° 0 mm 7 mps 755 mmHg 49%
    13:00 +3°C° 0 mm 6 mps 755 mmHg 48%
    14:00 +4°C° 0 mm 6 mps 755 mmHg 45%
    15:00 +5°C° 0 mm 6 mps 755 mmHg 43%
    16:00 +5°C° 0 mm 6 mps 755 mmHg 41%
    17:00 +5°C° 0 mm 5 mps 755 mmHg 44%
    18:00 +4°C° 0 mm 4 mps 756 mmHg 46%
    19:00 +3°C° 0 mm 3 mps 756 mmHg 49%
    20:00 +3°C° 0 mm 3 mps 756 mmHg 52%
    21:00 +2°C° 0 mm 3 mps 757 mmHg 54%
    22:00 +3°C° 0 mm 2 mps 757 mmHg 57%
    23:00 +2°C° 0 mm 2 mps 757 mmHg 58%

    27 March, Wednesday

    Time Temperature Precipitation Wind Pressure Humidity
    00:00 +2°C° 0 mm 2 mps 757 mmHg 60%
    01:00 +1°C° 0 mm 2 mps 757 mmHg 61%
    02:00 +1°C° 0 mm 2 mps 757 mmHg 61%
    03:00 +1°C° 0 mm 2 mps 757 mmHg 61%
    04:00 0°C° 0 mm 3 mps 757 mmHg 61%
    05:00 +1°C° 0 mm 2 mps 757 mmHg 58%
    06:00 +2°C° 0 mm 2 mps 757 mmHg 55%
    07:00 +2°C° 0 mm 2 mps 757 mmHg 52%
    08:00 +3°C° 0 mm 3 mps 756 mmHg 47%
    09:00 +5°C° 0 mm 3 mps 756 mmHg 41%
    10:00 +7°C° 0 mm 4 mps 756 mmHg 36%
    11:00 +8°C° 0 mm 4 mps 756 mmHg 36%
    12:00 +10°C° 0 mm 4 mps 755 mmHg 35%
    13:00 +11°C° 0 mm 4 mps 755 mmHg 35%
    14:00 +11°C° 0 mm 4 mps 755 mmHg 37%
    15:00 +11°C° 0 mm 4 mps 755 mmHg 39%
    16:00 +11°C° 0 mm 4 mps 754 mmHg 41%
    17:00 +10°C° 0 mm 4 mps 755 mmHg 45%
    18:00 +8°C° 0 mm 4 mps 755 mmHg 49%
    19:00 +8°C° 0 mm 3 mps 755 mmHg 54%
    20:00 +8°C° 0.1 mm 3 mps 755 mmHg 60%
    21:00 +7°C° 0.1 mm 4 mps 755 mmHg 67%
    22:00 +7°C° 0.1 mm 4 mps 756 mmHg 73%
    23:00 +6°C° 0.1 mm 4 mps 756 mmHg 76%
    Show more